EN

Hourly Weather Acamixtla

Today, 18 May, Tuesday

Time Temperature Precipitation Wind Pressure Humidity
00:00 +19°C° 0.6 mm 1 mps 628 mmHg 83%
01:00 +19°C° 0.6 mm 1 mps 628 mmHg 83%
02:00 +19°C° 0.6 mm 1 mps 627 mmHg 84%
03:00 +18°C° 0.6 mm 1 mps 627 mmHg 83%
04:00 +18°C° 0.6 mm 1 mps 627 mmHg 82%
05:00 +18°C° 0.6 mm 1 mps 628 mmHg 82%
06:00 +20°C° 0 mm 1 mps 628 mmHg 73%
07:00 +22°C° 0 mm 1 mps 629 mmHg 65%
08:00 +24°C° 0 mm 1 mps 630 mmHg 57%
09:00 +26°C° 0 mm 1 mps 630 mmHg 52%
10:00 +27°C° 0 mm 1 mps 630 mmHg 47%
11:00 +29°C° 0 mm 2 mps 630 mmHg 42%
12:00 +30°C° 0 mm 2 mps 629 mmHg 39%
13:00 +30°C° 0 mm 2 mps 629 mmHg 37%
14:00 +31°C° 0 mm 3 mps 628 mmHg 34%
15:00 +29°C° 0.6 mm 2 mps 628 mmHg 41%
16:00 +27°C° 0.6 mm 2 mps 627 mmHg 47%
17:00 +25°C° 0.6 mm 2 mps 627 mmHg 54%
18:00 +23°C° 0.5 mm 2 mps 627 mmHg 60%
19:00 +22°C° 0.5 mm 1 mps 627 mmHg 66%
20:00 +20°C° 0.5 mm 1 mps 627 mmHg 72%
21:00 +20°C° 0 mm 1 mps 627 mmHg 71%
22:00 +20°C° 0 mm 1 mps 627 mmHg 71%
23:00 +18°C° 0 mm 0 mps 627 mmHg 70%

Tomorrow, 19 May, Wednesday

Time Temperature Precipitation Wind Pressure Humidity
00:00 +17°C° 0.2 mm 0 mps 627 mmHg 73%
01:00 +19°C° 0.2 mm 1 mps 627 mmHg 77%
02:00 +18°C° 0.2 mm 1 mps 627 mmHg 80%
03:00 +18°C° 0 mm 1 mps 627 mmHg 80%
04:00 +18°C° 0 mm 1 mps 627 mmHg 80%
05:00 +18°C° 0 mm 1 mps 627 mmHg 80%
06:00 +20°C° 0 mm 1 mps 627 mmHg 71%
07:00 +22°C° 0 mm 1 mps 628 mmHg 62%
08:00 +24°C° 0 mm 1 mps 629 mmHg 53%
09:00 +26°C° 0 mm 1 mps 629 mmHg 48%
10:00 +27°C° 0 mm 2 mps 629 mmHg 43%
11:00 +29°C° 0 mm 2 mps 629 mmHg 39%
12:00 +29°C° 0 mm 2 mps 629 mmHg 36%
13:00 +30°C° 0 mm 2 mps 628 mmHg 33%
14:00 +31°C° 0 mm 2 mps 628 mmHg 31%
15:00 +30°C° 0 mm 3 mps 627 mmHg 31%
16:00 +29°C° 0 mm 3 mps 627 mmHg 31%
17:00 +28°C° 0 mm 3 mps 626 mmHg 31%
18:00 +26°C° 0 mm 2 mps 626 mmHg 36%
19:00 +24°C° 0 mm 2 mps 626 mmHg 41%
20:00 +22°C° 0 mm 1 mps 626 mmHg 46%
21:00 +22°C° 0 mm 1 mps 626 mmHg 47%
22:00 +21°C° 0 mm 1 mps 626 mmHg 49%
23:00 +20°C° 0 mm 1 mps 627 mmHg 50%

Day after tomorrow, 20 May, Thursday

Time Temperature Precipitation Wind Pressure Humidity
00:00 +20°C° 0 mm 1 mps 626 mmHg 52%
01:00 +19°C° 0 mm 1 mps 626 mmHg 54%
02:00 +19°C° 0 mm 1 mps 626 mmHg 56%
03:00 +18°C° 0 mm 1 mps 626 mmHg 56%
04:00 +18°C° 0 mm 1 mps 626 mmHg 56%
05:00 +18°C° 0 mm 1 mps 626 mmHg 56%
06:00 +20°C° 0 mm 1 mps 627 mmHg 50%
07:00 +20°C° 0 mm 0 mps 628 mmHg 44%
08:00 +23°C° 0 mm 0 mps 629 mmHg 38%
09:00 +27°C° 0 mm 1 mps 629 mmHg 34%
10:00 +28°C° 0 mm 1 mps 629 mmHg 29%
11:00 +30°C° 0 mm 1 mps 630 mmHg 25%
12:00 +30°C° 0 mm 2 mps 629 mmHg 23%
13:00 +31°C° 0 mm 2 mps 629 mmHg 21%
14:00 +31°C° 0 mm 2 mps 628 mmHg 19%
15:00 +31°C° 0 mm 2 mps 628 mmHg 20%
16:00 +30°C° 0 mm 2 mps 627 mmHg 21%
17:00 +29°C° 0 mm 2 mps 627 mmHg 22%
18:00 +27°C° 0 mm 2 mps 627 mmHg 26%
19:00 +25°C° 0 mm 2 mps 627 mmHg 30%
20:00 +22°C° 0 mm 1 mps 627 mmHg 34%
21:00 +22°C° 0 mm 1 mps 627 mmHg 36%
22:00 +21°C° 0 mm 1 mps 627 mmHg 37%
23:00 +21°C° 0 mm 1 mps 627 mmHg 38%

21 May, Friday

Time Temperature Precipitation Wind Pressure Humidity
00:00 +20°C° 0 mm 1 mps 627 mmHg 40%
01:00 +20°C° 0 mm 1 mps 627 mmHg 42%
02:00 +19°C° 0 mm 1 mps 627 mmHg 44%
03:00 +19°C° 0 mm 1 mps 627 mmHg 46%
04:00 +19°C° 0 mm 1 mps 627 mmHg 47%
05:00 +18°C° 0 mm 1 mps 627 mmHg 48%
06:00 +21°C° 0 mm 1 mps 628 mmHg 44%
07:00 +23°C° 0 mm 1 mps 629 mmHg 40%
08:00 +23°C° 0 mm 0 mps 630 mmHg 36%
09:00 +27°C° 0 mm 1 mps 630 mmHg 33%
10:00 +29°C° 0 mm 1 mps 631 mmHg 29%
11:00 +30°C° 0 mm 1 mps 631 mmHg 26%
12:00 +30°C° 0 mm 1 mps 630 mmHg 24%
13:00 +31°C° 0 mm 2 mps 630 mmHg 23%
14:00 +31°C° 0 mm 2 mps 629 mmHg 22%
15:00 +29°C° 0 mm 2 mps 628 mmHg 28%
16:00 +27°C° 0 mm 2 mps 628 mmHg 34%
17:00 +25°C° 0 mm 1 mps 628 mmHg 40%
18:00 +24°C° 0 mm 1 mps 628 mmHg 42%
19:00 +23°C° 0 mm 1 mps 628 mmHg 44%
20:00 +22°C° 0 mm 1 mps 629 mmHg 47%
21:00 +22°C° 0 mm 1 mps 629 mmHg 49%
22:00 +21°C° 0 mm 1 mps 629 mmHg 51%
23:00 +21°C° 0 mm 1 mps 629 mmHg 54%

22 May, Saturday

Time Temperature Precipitation Wind Pressure Humidity
00:00 +20°C° 0.1 mm 1 mps 629 mmHg 57%
01:00 +19°C° 0.1 mm 1 mps 629 mmHg 60%
02:00 +19°C° 0.1 mm 1 mps 628 mmHg 63%
03:00 +18°C° 0 mm 1 mps 628 mmHg 63%
04:00 +18°C° 0 mm 1 mps 628 mmHg 63%
05:00 +18°C° 0 mm 1 mps 628 mmHg 64%
06:00 +20°C° 0 mm 1 mps 630 mmHg 56%
07:00 +23°C° 0 mm 1 mps 630 mmHg 48%
08:00 +25°C° 0 mm 1 mps 631 mmHg 40%
09:00 +27°C° 0 mm 1 mps 631 mmHg 36%
10:00 +28°C° 0 mm 1 mps 631 mmHg 32%
11:00 +30°C° 0 mm 2 mps 632 mmHg 28%
12:00 +29°C° 0 mm 2 mps 631 mmHg 30%
13:00 +29°C° 0 mm 2 mps 630 mmHg 31%
14:00 +28°C° 0 mm 2 mps 630 mmHg 32%
15:00 +28°C° 0 mm 1 mps 629 mmHg 32%
16:00 +28°C° 0 mm 1 mps 629 mmHg 32%
17:00 +28°C° 0 mm 1 mps 629 mmHg 31%
18:00 +26°C° 0 mm 1 mps 629 mmHg 35%
19:00 +25°C° 0 mm 1 mps 629 mmHg 39%
20:00 +23°C° 0 mm 1 mps 629 mmHg 43%
21:00 +23°C° 0 mm 1 mps 629 mmHg 44%
22:00 +23°C° 0 mm 1 mps 629 mmHg 45%
23:00 +21°C° 0 mm 0 mps 629 mmHg 47%

23 May, Sunday

Time Temperature Precipitation Wind Pressure Humidity
00:00 +22°C° 0.1 mm 1 mps 629 mmHg 51%
01:00 +22°C° 0.1 mm 1 mps 629 mmHg 54%
02:00 +21°C° 0.1 mm 1 mps 628 mmHg 58%
03:00 +20°C° 0 mm 1 mps 628 mmHg 61%
04:00 +20°C° 0 mm 1 mps 628 mmHg 64%
05:00 +19°C° 0 mm 1 mps 628 mmHg 67%
06:00 +21°C° 0 mm 1 mps 629 mmHg 59%
07:00 +24°C° 0 mm 1 mps 630 mmHg 51%
08:00 +24°C° 0 mm 0 mps 631 mmHg 43%
09:00 +28°C° 0 mm 1 mps 631 mmHg 38%
10:00 +29°C° 0 mm 1 mps 631 mmHg 34%
11:00 +31°C° 0 mm 1 mps 632 mmHg 29%
12:00 +31°C° 0 mm 2 mps 631 mmHg 30%
13:00 +30°C° 0 mm 2 mps 630 mmHg 31%
14:00 +30°C° 0 mm 2 mps 629 mmHg 31%
15:00 +30°C° 0 mm 2 mps 629 mmHg 32%
16:00 +29°C° 0 mm 2 mps 629 mmHg 33%
17:00 +29°C° 0 mm 2 mps 628 mmHg 33%
18:00 +27°C° 0 mm 1 mps 628 mmHg 37%
19:00 +26°C° 0 mm 1 mps 628 mmHg 41%
20:00 +25°C° 0 mm 1 mps 629 mmHg 45%
21:00 +24°C° 0.1 mm 1 mps 629 mmHg 48%
22:00 +23°C° 0.1 mm 1 mps 629 mmHg 52%
23:00 +22°C° 0.1 mm 1 mps 629 mmHg 55%
Show more